Time,TemperatureF,DewpointF,PressureIn,WindDirection,WindDirectionDegrees,WindSpeedMPH,WindSpeedGustMPH,Humidity,HourlyPrecipIn,Conditions,Clouds,dailyrainin,SoftwareType,DateUTC
2013-06-01 00:02:00,70.0,69.0,30.07,ENE,63,0.0,-999.0,97,-99.99,,,-99.99,,2013-06-01 10:02:00,
2013-06-01 00:12:00,70.0,69.0,30.07,ENE,63,0.0,-999.0,97,-99.99,,,-99.99,,2013-06-01 10:12:00,
2013-06-01 00:22:00,70.0,69.0,30.06,ENE,63,0.0,-999.0,96,-99.99,,,-99.99,,2013-06-01 10:22:00,
2013-06-01 00:32:00,70.0,69.0,30.06,ENE,63,0.0,-999.0,96,-99.99,,,-99.99,,2013-06-01 10:32:00,
2013-06-01 00:42:00,70.0,69.0,30.06,ENE,63,0.0,-999.0,96,-99.99,,,-99.99,,2013-06-01 10:42:00,
2013-06-01 00:52:00,70.0,69.0,30.06,ENE,64,0.0,-999.0,96,-99.99,,,-99.99,,2013-06-01 10:52:00,
2013-06-01 01:02:00,70.0,68.0,30.05,ENE,61,0.0,-999.0,95,-99.99,,,-99.99,,2013-06-01 11:02:00,
2013-06-01 01:11:00,70.0,68.0,30.05,ENE,61,0.0,-999.0,95,-99.99,,,-99.99,,2013-06-01 11:11:00,
2013-06-01 01:21:00,70.0,68.0,30.04,East,86,1.0,-999.0,95,-99.99,,,-99.99,,2013-06-01 11:21:00,
2013-06-01 01:32:00,70.0,68.0,30.04,East,101,1.0,-999.0,95,-99.99,,,-99.99,,2013-06-01 11:32:00,
2013-06-01 01:42:00,70.0,68.0,30.04,East,101,1.0,-999.0,95,-99.99,,,-99.99,,2013-06-01 11:42:00,
2013-06-01 01:52:00,70.0,68.0,30.04,ENE,69,0.0,-999.0,95,-99.99,,,-99.99,,2013-06-01 11:52:00,
2013-06-01 02:01:00,70.0,68.0,30.03,ENE,76,0.0,-999.0,95,-99.99,,,-99.99,,2013-06-01 12:01:00,
2013-06-01 02:11:00,70.0,68.0,30.03,ENE,76,0.0,-999.0,95,-99.99,,,-99.99,,2013-06-01 12:11:00,
2013-06-01 02:21:00,70.0,68.0,30.03,East,82,1.0,-999.0,95,-99.99,,,-99.99,,2013-06-01 12:21:00,
2013-06-01 02:32:00,70.0,68.0,30.03,East,84,0.0,-999.0,95,-99.99,,,-99.99,,2013-06-01 12:32:00,
2013-06-01 02:41:00,70.0,68.0,30.03,East,84,0.0,-999.0,95,-99.99,,,-99.99,,2013-06-01 12:41:00,
2013-06-01 02:52:00,69.0,68.0,30.02,East,84,0.0,-999.0,96,-99.99,,,-99.99,,2013-06-01 12:52:00,
2013-06-01 03:01:00,69.0,68.0,30.02,East,80,1.0,-999.0,95,-99.99,,,-99.99,,2013-06-01 13:01:00,
2013-06-01 03:11:00,69.0,68.0,30.02,East,80,1.0,-999.0,95,-99.99,,,-99.99,,2013-06-01 13:11:00,
2013-06-01 03:22:00,69.0,68.0,30.02,ENE,76,1.0,-999.0,95,-99.99,,,-99.99,,2013-06-01 13:22:00,
2013-06-01 03:32:00,69.0,67.0,30.02,ENE,76,0.0,-999.0,94,-99.99,,,-99.99,,2013-06-01 13:32:00,
2013-06-01 03:42:00,69.0,67.0,30.02,ENE,76,0.0,-999.0,94,-99.99,,,-99.99,,2013-06-01 13:42:00,
2013-06-01 03:52:00,69.0,67.0,30.02,ENE,76,0.0,-999.0,94,-99.99,,,-99.99,,2013-06-01 13:52:00,
2013-06-01 04:01:00,68.0,66.0,30.02,ENE,76,0.0,-999.0,94,-99.99,,,-99.99,,2013-06-01 14:01:00,
2013-06-01 04:11:00,68.0,66.0,30.02,ENE,76,0.0,-999.0,94,-99.99,,,-99.99,,2013-06-01 14:11:00,
2013-06-01 04:21:00,68.0,66.0,30.02,ENE,76,1.0,-999.0,94,-99.99,,,-99.99,,2013-06-01 14:21:00,
2013-06-01 04:32:00,68.0,66.0,30.02,ENE,77,0.0,-999.0,94,-99.99,,,-99.99,,2013-06-01 14:32:00,
2013-06-01 04:42:00,68.0,66.0,30.02,ENE,77,0.0,-999.0,94,-99.99,,,-99.99,,2013-06-01 14:42:00,
2013-06-01 04:52:00,67.0,65.0,30.02,ENE,67,0.0,-999.0,94,-99.99,,,-99.99,,2013-06-01 14:52:00,
2013-06-01 05:01:00,67.0,65.0,30.02,ENE,67,0.0,-999.0,94,-99.99,,,-99.99,,2013-06-01 15:01:00,
2013-06-01 05:11:00,67.0,65.0,30.02,ENE,67,0.0,-999.0,94,-99.99,,,-99.99,,2013-06-01 15:11:00,
2013-06-01 05:21:00,67.0,65.0,30.02,NE,42,2.0,-999.0,93,-99.99,,,-99.99,,2013-06-01 15:21:00,
2013-06-01 05:33:00,67.0,65.0,30.03,NE,42,0.0,-999.0,94,-99.99,,,-99.99,,2013-06-01 15:33:00,
2013-06-01 05:43:00,67.0,65.0,30.03,NE,42,0.0,-999.0,94,-99.99,,,-99.99,,2013-06-01 15:43:00,
2013-06-01 05:53:00,67.0,65.0,30.03,NE,42,0.0,-999.0,94,-99.99,,,-99.99,,2013-06-01 15:53:00,
2013-06-01 06:03:00,67.0,66.0,30.04,NE,43,0.0,-999.0,95,-99.99,,,-99.99,,2013-06-01 16:03:00,
2013-06-01 06:12:00,67.0,66.0,30.04,NE,43,0.0,-999.0,95,-99.99,,,-99.99,,2013-06-01 16:12:00,
2013-06-01 06:23:00,67.0,66.0,30.04,NE,43,0.0,-999.0,95,-99.99,,,-99.99,,2013-06-01 16:23:00,
2013-06-01 06:33:00,67.0,66.0,30.04,NE,43,0.0,-999.0,95,-99.99,,,-99.99,,2013-06-01 16:33:00,
2013-06-01 06:42:00,67.0,66.0,30.04,NE,43,0.0,-999.0,95,-99.99,,,-99.99,,2013-06-01 16:42:00,
2013-06-01 06:52:00,67.0,65.0,30.05,ENE,76,1.0,-999.0,94,-99.99,,,-99.99,,2013-06-01 16:52:00,
2013-06-01 07:02:00,69.0,67.0,30.05,ENE,73,1.0,-999.0,92,-99.99,,,-99.99,,2013-06-01 17:02:00,
2013-06-01 07:11:00,69.0,67.0,30.05,ENE,73,1.0,-999.0,92,-99.99,,,-99.99,,2013-06-01 17:11:00,
2013-06-01 07:22:00,70.0,67.0,30.06,ENE,76,0.0,-999.0,89,-99.99,,,-99.99,,2013-06-01 17:22:00,
2013-06-01 07:32:00,72.0,69.0,30.06,ENE,75,0.0,-999.0,89,-99.99,,,-99.99,,2013-06-01 17:32:00,
2013-06-01 07:42:00,72.0,69.0,30.06,ENE,75,0.0,-999.0,89,-99.99,,,-99.99,,2013-06-01 17:42:00,
2013-06-01 07:52:00,73.0,69.0,30.07,SE,134,0.0,-999.0,86,-99.99,,,-99.99,,2013-06-01 17:52:00,
2013-06-01 08:01:00,74.0,70.0,30.07,SSE,148,0.0,-999.0,86,-99.99,,,-99.99,,2013-06-01 18:01:00,
2013-06-01 08:11:00,74.0,70.0,30.07,SSE,148,0.0,-999.0,86,-99.99,,,-99.99,,2013-06-01 18:11:00,
2013-06-01 08:21:00,74.0,70.0,30.07,ESE,117,1.0,-999.0,86,-99.99,,,-99.99,,2013-06-01 18:21:00,
2013-06-01 08:32:00,74.0,70.0,30.08,SE,138,0.0,-999.0,86,-99.99,,,-99.99,,2013-06-01 18:32:00,
2013-06-01 08:41:00,74.0,70.0,30.08,SE,138,0.0,-999.0,86,-99.99,,,-99.99,,2013-06-01 18:41:00,
2013-06-01 08:51:00,74.0,70.0,30.08,SSW,199,3.0,-999.0,87,-99.99,,,-99.99,,2013-06-01 18:51:00,
2013-06-01 09:01:00,75.0,71.0,30.08,South,189,2.0,-999.0,87,-99.99,,,-99.99,,2013-06-01 19:01:00,
2013-06-01 09:11:00,75.0,71.0,30.08,South,189,2.0,-999.0,87,-99.99,,,-99.99,,2013-06-01 19:11:00,
2013-06-01 09:21:00,76.0,71.0,30.08,SSW,196,2.0,-999.0,84,-99.99,,,-99.99,,2013-06-01 19:21:00,
2013-06-01 09:32:00,77.0,71.0,30.08,SW,228,1.0,-999.0,83,-99.99,,,-99.99,,2013-06-01 19:32:00,
2013-06-01 09:41:00,77.0,71.0,30.08,SW,228,1.0,-999.0,83,-99.99,,,-99.99,,2013-06-01 19:41:00,
2013-06-01 09:52:00,76.0,71.0,30.08,SW,215,2.0,-999.0,85,-99.99,,,-99.99,,2013-06-01 19:52:00,
2013-06-01 10:01:00,76.0,71.0,30.08,SW,233,2.0,-999.0,84,-99.99,,,-99.99,,2013-06-01 20:01:00,
2013-06-01 10:11:00,76.0,71.0,30.08,SW,233,2.0,-999.0,84,-99.99,,,-99.99,,2013-06-01 20:11:00,
2013-06-01 10:21:00,76.0,71.0,30.08,South,180,2.0,-999.0,85,-99.99,,,-99.99,,2013-06-01 20:21:00,
2013-06-01 10:32:00,76.0,70.0,30.08,SSW,202,1.0,-999.0,83,-99.99,,,-99.99,,2013-06-01 20:32:00,
2013-06-01 10:41:00,76.0,70.0,30.08,SSW,202,1.0,-999.0,83,-99.99,,,-99.99,,2013-06-01 20:41:00,
2013-06-01 10:51:00,76.0,70.0,30.08,SSW,198,2.0,-999.0,82,-99.99,,,-99.99,,2013-06-01 20:51:00,
2013-06-01 11:01:00,76.0,70.0,30.07,South,190,1.0,-999.0,82,-99.99,,,-99.99,,2013-06-01 21:01:00,
2013-06-01 11:11:00,76.0,70.0,30.07,South,188,2.0,-999.0,82,-99.99,,,-99.99,,2013-06-01 21:11:00,
2013-06-01 11:21:00,76.0,70.0,30.07,South,188,2.0,-999.0,82,-99.99,,,-99.99,,2013-06-01 21:21:00,
2013-06-01 11:33:00,77.0,72.0,30.07,WSW,245,1.0,-999.0,84,-99.99,,,-99.99,,2013-06-01 21:33:00,
2013-06-01 11:42:00,77.0,72.0,30.07,WSW,245,1.0,-999.0,84,-99.99,,,-99.99,,2013-06-01 21:42:00,
2013-06-01 11:53:00,77.0,72.0,30.06,West,259,2.0,-999.0,84,-99.99,,,-99.99,,2013-06-01 21:53:00,
2013-06-01 12:03:00,77.0,71.0,30.06,SSW,207,2.0,-999.0,81,-99.99,,,-99.99,,2013-06-01 22:03:00,
2013-06-01 12:12:00,77.0,71.0,30.05,SW,220,1.0,-999.0,81,-99.99,,,-99.99,,2013-06-01 22:12:00,
2013-06-01 12:23:00,77.0,71.0,30.05,SW,220,1.0,-999.0,81,-99.99,,,-99.99,,2013-06-01 22:23:00,
2013-06-01 12:33:00,78.0,72.0,30.05,SSE,161,1.0,-999.0,81,-99.99,,,-99.99,,2013-06-01 22:33:00,
2013-06-01 12:42:00,78.0,72.0,30.05,SSE,161,1.0,-999.0,81,-99.99,,,-99.99,,2013-06-01 22:42:00,
2013-06-01 12:53:00,77.0,71.0,30.04,SSW,194,2.0,-999.0,82,-99.99,,,-99.99,,2013-06-01 22:53:00,
2013-06-01 13:02:00,78.0,72.0,30.04,South,190,2.0,-999.0,82,-99.99,,,-99.99,,2013-06-01 23:02:00,
2013-06-01 13:11:00,77.0,71.0,30.04,SSW,198,3.0,-999.0,83,-99.99,,,-99.99,,2013-06-01 23:11:00,
2013-06-01 13:21:00,77.0,71.0,30.04,SSW,198,3.0,-999.0,83,-99.99,,,-99.99,,2013-06-01 23:21:00,
2013-06-01 13:32:00,77.0,72.0,30.03,SSW,194,3.0,-999.0,84,-99.99,,,-99.99,,2013-06-01 23:32:00,
2013-06-01 13:42:00,77.0,72.0,30.03,SSW,194,3.0,-999.0,84,-99.99,,,-99.99,,2013-06-01 23:42:00,
2013-06-01 13:52:00,77.0,71.0,30.03,SSW,202,2.0,-999.0,83,-99.99,,,-99.99,,2013-06-01 23:52:00,
2013-06-01 14:02:00,77.0,71.0,30.03,South,188,2.0,-999.0,82,-99.99,,,-99.99,,2013-06-02 00:02:00,
2013-06-01 14:11:00,77.0,71.0,30.03,South,188,2.0,-999.0,82,-99.99,,,-99.99,,2013-06-02 00:11:00,
2013-06-01 14:21:00,77.0,71.0,30.02,South,191,3.0,-999.0,82,-99.99,,,-99.99,,2013-06-02 00:21:00,
2013-06-01 14:31:00,77.0,70.0,30.02,South,180,2.0,-999.0,80,-99.99,,,-99.99,,2013-06-02 00:31:00,
2013-06-01 14:41:00,77.0,70.0,30.02,South,180,2.0,-999.0,80,-99.99,,,-99.99,,2013-06-02 00:41:00,
2013-06-01 14:51:00,77.0,71.0,30.02,SE,138,2.0,-999.0,81,-99.99,,,-99.99,,2013-06-02 00:51:00,
2013-06-01 15:01:00,77.0,70.0,30.02,SSW,199,1.0,-999.0,80,-99.99,,,-99.99,,2013-06-02 01:01:00,
2013-06-01 15:11:00,77.0,70.0,30.02,SSW,199,1.0,-999.0,80,-99.99,,,-99.99,,2013-06-02 01:11:00,
2013-06-01 15:21:00,77.0,71.0,30.01,SW,220,2.0,-999.0,81,-99.99,,,-99.99,,2013-06-02 01:21:00,
2013-06-01 15:32:00,77.0,71.0,30.01,SSW,198,2.0,-999.0,81,-99.99,,,-99.99,,2013-06-02 01:32:00,
2013-06-01 15:41:00,77.0,71.0,30.01,SSW,198,2.0,-999.0,81,-99.99,,,-99.99,,2013-06-02 01:41:00,
2013-06-01 15:52:00,76.0,70.0,30.01,SSW,200,3.0,-999.0,81,-99.99,,,-99.99,,2013-06-02 01:52:00,
2013-06-01 16:01:00,77.0,70.0,30.01,SSW,192,3.0,-999.0,80,-99.99,,,-99.99,,2013-06-02 02:01:00,
2013-06-01 16:12:00,77.0,70.0,30.01,SSW,192,3.0,-999.0,80,-99.99,,,-99.99,,2013-06-02 02:12:00,
2013-06-01 16:21:00,77.0,70.0,30.01,SSW,196,2.0,-999.0,79,-99.99,,,-99.99,,2013-06-02 02:21:00,
2013-06-01 16:32:00,76.0,69.0,30.02,SSW,202,3.0,-999.0,79,-99.99,,,-99.99,,2013-06-02 02:32:00,
2013-06-01 16:41:00,76.0,69.0,30.02,SSW,202,3.0,-999.0,79,-99.99,,,-99.99,,2013-06-02 02:41:00,
2013-06-01 16:51:00,76.0,69.0,30.02,SSW,194,2.0,-999.0,79,-99.99,,,-99.99,,2013-06-02 02:51:00,
2013-06-01 17:02:00,76.0,69.0,30.03,South,180,2.0,-999.0,80,-99.99,,,-99.99,,2013-06-02 03:02:00,
2013-06-01 17:11:00,76.0,69.0,30.03,South,180,2.0,-999.0,80,-99.99,,,-99.99,,2013-06-02 03:11:00,
2013-06-01 17:21:00,76.0,70.0,30.03,SE,141,3.0,-999.0,81,-99.99,,,-99.99,,2013-06-02 03:21:00,
2013-06-01 17:33:00,76.0,70.0,30.03,SSW,195,2.0,-999.0,81,-99.99,,,-99.99,,2013-06-02 03:33:00,
2013-06-01 17:43:00,76.0,70.0,30.03,SSW,195,2.0,-999.0,81,-99.99,,,-99.99,,2013-06-02 03:43:00,
2013-06-01 17:52:00,76.0,70.0,30.03,SSE,163,2.0,-999.0,82,-99.99,,,-99.99,,2013-06-02 03:52:00,
2013-06-01 18:02:00,76.0,70.0,30.04,SSW,207,3.0,-999.0,82,-99.99,,,-99.99,,2013-06-02 04:02:00,
2013-06-01 18:12:00,76.0,70.0,30.04,SSW,207,3.0,-999.0,82,-99.99,,,-99.99,,2013-06-02 04:12:00,
2013-06-01 18:23:00,75.0,70.0,30.04,SSW,206,2.0,-999.0,84,-99.99,,,-99.99,,2013-06-02 04:23:00,
2013-06-01 18:33:00,75.0,70.0,30.05,SSE,168,2.0,-999.0,85,-99.99,,,-99.99,,2013-06-02 04:33:00,
2013-06-01 18:42:00,75.0,70.0,30.05,SSE,168,2.0,-999.0,85,-99.99,,,-99.99,,2013-06-02 04:42:00,
2013-06-01 18:52:00,74.0,70.0,30.06,SSW,193,3.0,-999.0,88,-99.99,,,-99.99,,2013-06-02 04:52:00,
2013-06-01 19:02:00,74.0,70.0,30.06,South,186,1.0,-999.0,88,-99.99,,,-99.99,,2013-06-02 05:02:00,
2013-06-01 19:11:00,74.0,70.0,30.06,South,186,1.0,-999.0,88,-99.99,,,-99.99,,2013-06-02 05:11:00,
2013-06-01 19:22:00,74.0,71.0,30.07,SSW,197,1.0,-999.0,90,-99.99,,,-99.99,,2013-06-02 05:22:00,
2013-06-01 19:32:00,73.0,70.0,30.08,SW,231,1.0,-999.0,91,-99.99,,,-99.99,,2013-06-02 05:32:00,
2013-06-01 19:42:00,73.0,70.0,30.08,SW,231,1.0,-999.0,91,-99.99,,,-99.99,,2013-06-02 05:42:00,
2013-06-01 19:52:00,73.0,71.0,30.08,SSW,211,1.0,-999.0,92,-99.99,,,-99.99,,2013-06-02 05:52:00,
2013-06-01 20:01:00,73.0,71.0,30.09,SSW,205,0.0,-999.0,93,-99.99,,,-99.99,,2013-06-02 06:01:00,
2013-06-01 20:12:00,73.0,71.0,30.09,SSW,205,0.0,-999.0,93,-99.99,,,-99.99,,2013-06-02 06:12:00,
2013-06-01 20:21:00,73.0,71.0,30.09,SSW,205,0.0,-999.0,93,-99.99,,,-99.99,,2013-06-02 06:21:00,
2013-06-01 20:31:00,73.0,71.0,30.09,SSW,205,0.0,-999.0,94,-99.99,,,-99.99,,2013-06-02 06:31:00,
2013-06-01 20:41:00,73.0,71.0,30.09,SSW,205,0.0,-999.0,94,-99.99,,,-99.99,,2013-06-02 06:41:00,
2013-06-01 20:51:00,73.0,71.0,30.10,SSW,205,0.0,-999.0,94,-99.99,,,-99.99,,2013-06-02 06:51:00,
2013-06-01 21:01:00,72.0,70.0,30.10,SSW,205,0.0,-999.0,94,-99.99,,,-99.99,,2013-06-02 07:01:00,
2013-06-01 21:11:00,72.0,70.0,30.10,SSW,205,0.0,-999.0,94,-99.99,,,-99.99,,2013-06-02 07:11:00,
2013-06-01 21:21:00,72.0,70.0,30.10,SSW,205,0.0,-999.0,94,-99.99,,,-99.99,,2013-06-02 07:21:00,
2013-06-01 21:31:00,72.0,70.0,30.11,WNW,299,0.0,-999.0,94,-99.99,,,-99.99,,2013-06-02 07:31:00,
2013-06-01 21:41:00,72.0,70.0,30.11,WNW,299,0.0,-999.0,94,-99.99,,,-99.99,,2013-06-02 07:41:00,
2013-06-01 21:52:00,72.0,70.0,30.11,North,351,1.0,-999.0,95,-99.99,,,-99.99,,2013-06-02 07:52:00,
2013-06-01 22:01:00,72.0,70.0,30.11,NNW,346,2.0,-999.0,94,-99.99,,,-99.99,,2013-06-02 08:01:00,
2013-06-01 22:11:00,72.0,70.0,30.11,NNW,346,2.0,-999.0,94,-99.99,,,-99.99,,2013-06-02 08:11:00,
2013-06-01 22:21:00,72.0,70.0,30.11,NW,309,1.0,-999.0,94,-99.99,,,-99.99,,2013-06-02 08:21:00,
2013-06-01 22:31:00,72.0,70.0,30.11,NW,311,0.0,-999.0,94,-99.99,,,-99.99,,2013-06-02 08:31:00,
2013-06-01 22:41:00,72.0,70.0,30.11,NW,311,0.0,-999.0,94,-99.99,,,-99.99,,2013-06-02 08:41:00,
2013-06-01 22:51:00,72.0,70.0,30.11,NNW,329,0.0,-999.0,95,-99.99,,,-99.99,,2013-06-02 08:51:00,
2013-06-01 23:01:00,72.0,70.0,30.11,NW,315,1.0,-999.0,95,-99.99,,,-99.99,,2013-06-02 09:01:00,
2013-06-01 23:11:00,72.0,70.0,30.11,NW,315,1.0,-999.0,95,-99.99,,,-99.99,,2013-06-02 09:11:00,
2013-06-01 23:21:00,72.0,70.0,30.11,NNW,334,1.0,-999.0,94,-99.99,,,-99.99,,2013-06-02 09:21:00,
2013-06-01 23:33:00,72.0,70.0,30.11,North,355,0.0,-999.0,95,-99.99,,,-99.99,,2013-06-02 09:33:00,
2013-06-01 23:42:00,72.0,70.0,30.11,North,355,0.0,-999.0,95,-99.99,,,-99.99,,2013-06-02 09:42:00,
2013-06-01 23:53:00,72.0,70.0,30.11,North,355,0.0,-999.0,95,-99.99,,,-99.99,,2013-06-02 09:53:00,